Location: ??????????
(54.8537°N, 38.8755°E)
Time: 04:45:43
(UTC+00:00)

Tiros 1 despin weight - Pass Details

Date: 17 September 2024
Orbit: 572 x 614 km, 48.2° (Epoch: 10 October)

Event Time Altitude Azimuth Distance (km) Brightness Sun altitude
Rises 00:48:10 0° 226° (SW) 2,868 - -18.8°
Reaches altitude 10° 00:50:46 10° 214° (SSW) 1,970 - -18.4°
Exits shadow 00:53:13 22° 184° (S) 1,351 ? -18.1°
Maximum altitude 00:54:28 25° 159° (SSE) 1,250 ? -18.0°
Drops below altitude 10° 00:58:12 10° 104° (ESE) 1,984 ? -17.5°
Sets 01:00:48 0° 91° (E) 2,891 ? -17.2°
